STARLINK-1082 (44938 NORAD) Tracking and Keplerian Element Data

This shows tracking and keplerian element data for the satellite.

Feedback or suggestion? Click here.




ElementValue
Catalog44938
NameSTARLINK-1082
Epoch Orbit176
Epoch Day189.91668981
Epoch Year2020
RAAN262.6792
Inclination52.9975
Eccentricity0.0001092
Argument of Perigee105.3551
Mean Anonmoly307.5809
Mean Motion15.05594901
Decay Rate-0.00025284
L11 44938U 20001AA 20189.91668981 -.00025284 00000-0 -17216-2 0 9991
L22 44938 52.9975 262.6792 0001092 105.3551 307.5809 15.05594901 1768

Live tracking and technical data element details for STARLINK-1082 (NORAD 44938). STARLINK-1082 can be tracked NOW for your location showing map with azimuth and elevation plus other details from your city location.

Track the satellite on the map from your city or location and see movement details for azimuth, elevation, latitude, longitude, range, height, and movement on the map or in text.







IsCatalogInMostPopularTable: catalog: 44938, numindb: 36
Update: records affected: 1



GetName: 44938 STARLINK-1082

Hit Count: updated at: Thu, 09 Jul 2020 02:32:24 GMT